Wind_Speed
20 20 19 19 19 20 20 20 20 17 16 13 14 15 15 15 14 14 14 14 14 14 14 15 15 15 15 16 17 17 17 17 16 16 17 16 16 16 16 16 16 15 15 15
21 21 21 20 20 20 19 19 19 18 17 16 16 16 16 16 15 15 14 14 15 15 15 15 15 15 16 16 16 16 16 16 16 16 16 16 16 15 15 16 16 15 15 15
22 23 23 22 19 20 20 19 19 19 18 17 17 17 16 16 16 16 15 15 15 15 15 15 15 15 15 15 15 15 15 16 16 16 15 15 15 15 15 15 15 15 16 16
24 24 25 21 20 20 20 19 19 19 18 17 17 17 17 16 15 15 15 16 16 15 15 15 15 15 15 15 15 15 15 15 15 15 15 15 15 15 15 15 15 16 16 16
26 25 23 21 20 20 20 19 18 18 18 17 17 17 17 17 16 16 15 15 15 14 15 15 15 15 15 15 15 14 14 14 15 15 15 15 15 15 15 15 16 16 16 16
26 25 24 20 21 21 22 20 19 19 18 18 17 17 17 17 16 16 15 15 15 14 14 14 14 14 14 15 14 14 14 14 14 15 15 15 15 15 16 16 16 16 16 17
27 26 23 22 22 22 22 20 20 19 19 18 17 17 16 16 16 16 15 15 15 14 15 14 14 14 14 14 14 14 14 15 15 15 14 14 15 15 16 16 16 16 17 17
27 27 24 23 23 23 23 22 21 21 19 18 18 17 16 16 17 16 16 16 16 16 16 16 15 15 14 14 15 15 15 15 15 14 14 14 14 14 15 16 15 16 16 17
27 26 24 24 23 23 23 22 21 20 20 19 19 18 18 18 18 18 18 18 17 17 17 17 16 16 15 15 15 16 16 16 15 14 14 14 15 15 15 16 16 16 17 17
27 26 25 25 24 23 23 23 22 21 20 20 19 19 19 19 19 19 18 19 18 17 17 17 17 17 15 16 16 16 16 16 16 15 15 16 16 16 16 16 16 17 17 17
26 25 26 25 25 25 24 24 23 21 20 21 20 20 20 19 19 19 19 19 20 19 19 18 17 17 17 16 16 17 17 17 17 17 17 17 17 17 17 17 17 18 18 18
27 26 27 26 25 25 25 25 23 23 22 22 22 22 21 21 20 20 19 19 20 20 19 18 18 18 18 18 18 17 17 17 18 18 18 18 18 18 18 18 18 18 18 18
28 29 28 26 26 26 26 25 25 24 25 25 24 23 23 22 21 21 20 20 19 19 19 19 19 19 19 18 18 18 18 18 18 18 18 18 19 19 19 19 19 18 18 18
29 29 29 28 28 28 27 26 25 25 25 26 25 25 24 24 23 22 21 20 20 20 20 21 21 20 20 20 20 19 19 18 18 19 19 19 20 20 20 20 20 19 19 19
30 30 30 29 29 28 27 26 26 26 26 27 26 26 25 25 24 23 22 22 22 22 22 22 21 21 21 21 21 20 20 20 20 20 20 21 21 21 21 21 21 20 20 21
32 31 29 29 28 28 27 27 26 26 26 27 27 26 25 25 25 25 25 24 23 23 23 23 22 22 22 21 21 21 21 21 21 21 21 21 20 21 21 21 22 22 22 22
30 29 29 29 28 27 27 27 27 26 27 27 27 27 26 26 25 25 26 26 25 25 24 24 23 23 23 23 23 23 23 23 23 23 23 22 22 22 22 23 23 24 24 24
30 29 29 29 28 28 27 28 28 28 28 27 27 28 28 28 28 27 27 27 27 27 26 25 25 25 25 25 24 24 25 25 25 25 25 26 25 25 24 24 24 25 25 25
29 30 29 29 29 29 28 29 29 29 29 29 29 29 29 29 28 28 28 28 29 28 27 27 26 26 26 25 25 25 26 26 26 26 26 27 26 26 25 24 24 25 25 25
29 29 30 30 29 29 30 30 30 31 31 31 30 30 30 30 30 29 29 29 29 29 29 29 28 28 27 27 26 26 26 26 26 26 26 26 26 25 25 25 25 25 25 25
29 29 30 30 30 30 30 31 31 32 32 32 31 30 30 30 30 30 29 29 30 30 30 30 30 29 29 28 28 27 27 26 26 27 27 27 27 26 25 25 25 25 25 26
29 30 30 30 30 30 30 30 31 32 32 32 31 31 31 31 31 31 31 31 31 31 30 30 30 30 30 29 29 28 27 27 27 27 27 27 27 26 26 26 26 26 26 26
28 29 30 30 31 31 31 30 30 31 32 31 31 31 31 31 32 32 32 32 33 33 32 32 32 31 31 31 30 29 29 28 28 28 28 27 27 27 27 27 27 27 27 27
27 28 30 31 31 31 31 30 30 30 31 31 31 31 31 31 31 32 32 32 32 33 33 33 32 32 32 31 31 31 30 30 29 29 28 28 28 28 28 28 28 28 29 29
27 27 28 30 30 30 31 30 31 31 31 31 31 31 31 31 31 31 31 31 31 31 32 33 33 32 32 32 31 31 31 31 30 30 29 28 28 28 28 28 29 29 29 29
26 27 27 28 28 29 29 29 29 29 29 29 30 30 30 30 30 30 31 31 32 32 32 32 32 32 32 31 31 30 30 30 30 30 29 29 29 28 29 29 29 30 29 29
26 26 27 27 27 27 28 28 28 28 28 29 30 30 30 30 30 31 31 31 31 31 31 30 31 31 31 31 31 30 30 30 30 30 29 29 29 28 28 29 29 29 30 30
Wind_Direction
263 263 264 266 266 268 270 273 275 275 276 275 272 267 264 263 263 261 260 261 260 258 260 260 257 256 254 255 255 256 256 258 259 261 263 262 262 264 262 259 258 261 262 263
261 263 264 265 265 268 271 273 275 273 273 273 272 268 266 263 261 261 262 262 259 257 259 260 259 258 254 256 256 254 256 258 260 262 263 261 264 264 263 263 258 258 260 264
260 261 264 264 266 268 270 271 273 271 272 270 269 267 265 262 260 259 260 261 260 259 260 260 260 258 254 254 255 255 257 259 260 263 264 261 263 267 267 266 260 258 259 260
262 261 262 266 267 268 268 270 271 269 267 267 269 266 263 261 262 261 259 261 261 261 258 256 258 256 253 251 253 256 258 258 260 261 264 263 264 267 267 266 264 260 257 258
261 263 262 263 265 266 267 268 268 267 266 266 268 266 263 261 261 261 263 265 263 259 257 254 255 254 254 253 255 257 259 259 261 261 261 262 263 265 268 267 265 260 257 259
261 263 262 262 263 265 267 267 264 264 264 264 265 263 263 261 259 259 260 262 263 259 255 253 254 255 258 257 255 256 259 260 263 264 263 263 264 266 267 267 267 261 260 262
261 263 263 263 262 263 264 265 263 262 260 261 263 262 261 259 256 256 258 260 260 259 255 253 254 257 258 257 256 257 260 261 264 265 267 266 268 268 267 269 267 264 264 265
260 261 263 262 262 262 263 263 263 260 258 261 261 260 259 256 254 255 259 261 261 260 257 255 256 258 259 259 259 260 262 263 265 267 267 268 269 270 269 271 268 264 267 268
259 259 259 258 259 260 260 261 259 258 256 258 258 258 257 256 256 256 257 258 260 260 256 254 256 259 258 257 259 261 262 263 265 265 267 268 270 271 271 271 269 269 269 268
259 257 257 257 256 256 257 259 258 257 255 254 257 256 255 256 257 256 256 257 258 258 255 253 256 258 258 258 259 262 262 263 263 265 266 268 269 270 272 271 273 272 269 270
256 256 255 255 256 255 257 258 257 256 255 255 256 255 254 255 257 255 255 258 260 258 254 253 256 258 259 262 260 261 262 263 263 265 266 268 270 271 273 272 275 272 270 270
254 253 254 255 256 256 257 257 256 254 255 256 256 255 252 253 254 254 254 256 256 256 255 253 255 257 259 262 263 261 261 263 265 266 267 268 269 270 271 271 273 272 272 270
253 253 254 256 255 256 257 258 256 253 252 253 254 253 253 252 253 254 255 253 254 253 254 255 256 257 259 263 262 262 263 263 266 268 268 267 268 268 269 271 273 274 274 273
253 254 253 254 254 254 255 256 255 252 251 251 252 252 253 252 252 253 254 253 252 251 253 255 256 257 259 262 262 262 262 264 265 269 269 268 267 266 266 268 270 274 273 274
254 255 255 254 254 254 254 255 253 252 252 251 250 250 252 253 253 252 253 253 253 252 253 255 258 258 259 260 260 260 261 263 266 268 269 269 268 266 265 264 267 271 273 274
252 253 253 252 253 254 254 254 254 253 252 251 250 249 250 252 252 251 252 253 253 254 254 255 256 257 259 260 259 260 261 264 267 269 271 271 270 269 267 267 269 271 273 273
250 250 249 250 251 252 252 253 253 250 251 251 249 249 250 252 252 252 253 253 252 251 252 253 254 256 258 259 260 262 263 265 266 269 271 271 271 270 268 268 271 272 273 274
250 250 249 250 251 252 250 251 251 249 250 250 249 249 251 252 253 253 254 254 253 252 252 252 254 256 258 260 261 263 264 264 266 268 269 270 271 272 271 271 272 273 274 273
251 250 248 250 252 253 252 251 252 251 251 252 251 251 252 253 253 252 253 253 253 252 252 253 255 257 258 259 261 262 263 265 267 269 271 272 272 273 274 274 274 274 274 273
251 249 248 251 253 254 254 253 252 251 252 254 253 252 253 253 254 254 253 252 251 252 253 254 255 257 259 260 262 264 265 266 266 269 271 272 271 272 273 273 272 272 273 273
251 249 248 250 252 253 254 254 254 253 253 253 253 253 253 252 253 253 253 252 251 251 253 253 255 257 259 260 262 264 266 267 268 268 269 271 270 269 270 271 272 272 274 275
251 250 249 251 253 253 254 255 255 255 255 255 253 253 253 253 253 254 254 253 251 250 251 253 254 256 258 259 260 262 264 266 268 269 270 271 269 268 270 270 271 272 274 276
254 252 252 252 253 255 256 256 255 255 255 253 253 254 254 255 255 254 253 252 251 251 252 254 255 256 257 258 260 262 264 266 267 269 271 270 268 268 269 269 270 271 273 273
257 255 254 253 254 255 255 254 254 254 253 252 253 253 254 256 255 254 254 253 253 254 254 254 255 255 257 259 260 262 264 265 267 268 269 270 269 268 268 269 270 271 271 272
259 258 256 255 254 253 252 251 252 253 253 252 253 254 256 257 256 255 255 255 256 255 254 254 254 254 256 258 260 261 263 264 265 266 268 269 268 267 268 270 271 271 271 272
259 259 259 257 255 253 252 252 252 253 253 252 253 254 256 256 256 255 255 256 256 255 255 255 254 254 256 258 259 260 261 261 263 265 266 267 267 267 269 270 270 271 272 273
261 260 259 258 257 255 253 252 253 254 254 254 253 253 255 257 257 256 256 256 256 255 255 256 256 255 256 257 257 257 258 260 262 264 265 267 268 269 270 271 272 272 272 272
Height
5803 5804 5804 5804 5805 5804 5804 5804 5804 5804 5804 5805 5805 5805 5805 5805 5806 5806 5806 5807 5807 5808 5809 5809 5809 5810 5811 5811 5812 5813 5814 5814 5815 5815 5816 5816 5817 5817 5818 5819 5819 5820 5820 5820
5798 5798 5798 5799 5800 5799 5799 5799 5799 5799 5800 5801 5800 5800 5801 5801 5802 5802 5803 5803 5803 5804 5805 5805 5806 5806 5807 5807 5808 5809 5809 5810 5811 5811 5812 5812 5813 5813 5814 5814 5815 5815 5815 5816
5792 5793 5792 5793 5795 5794 5794 5794 5794 5794 5796 5795 5796 5796 5796 5797 5797 5798 5799 5799 5800 5800 5800 5801 5802 5802 5803 5804 5804 5805 5806 5806 5807 5807 5808 5808 5809 5809 5809 5810 5810 5810 5811 5811
5786 5787 5786 5791 5790 5789 5789 5789 5789 5789 5790 5790 5791 5791 5792 5792 5793 5794 5795 5795 5796 5796 5796 5797 5798 5798 5799 5800 5800 5801 5802 5802 5803 5803 5804 5804 5805 5805 5805 5805 5806 5806 5806 5807
5779 5779 5781 5784 5784 5783 5783 5784 5785 5784 5785 5786 5786 5787 5787 5788 5789 5790 5790 5791 5791 5792 5792 5793 5794 5794 5795 5796 5796 5797 5798 5798 5799 5799 5800 5800 5801 5801 5801 5801 5801 5802 5802 5802
5773 5773 5774 5779 5778 5778 5779 5779 5780 5779 5780 5781 5781 5782 5784 5784 5784 5785 5786 5786 5787 5788 5788 5789 5790 5791 5791 5792 5793 5793 5794 5795 5795 5795 5796 5796 5797 5797 5797 5797 5797 5797 5797 5798
5766 5766 5768 5772 5772 5772 5774 5775 5774 5774 5774 5775 5776 5777 5779 5779 5779 5780 5781 5782 5783 5784 5785 5785 5786 5787 5787 5788 5789 5790 5790 5791 5791 5791 5792 5792 5792 5792 5793 5793 5793 5793 5793 5793
5759 5760 5764 5765 5765 5766 5767 5767 5767 5768 5769 5770 5771 5771 5772 5774 5775 5776 5777 5777 5778 5779 5780 5781 5782 5783 5784 5784 5785 5786 5786 5786 5787 5787 5787 5788 5788 5788 5788 5788 5788 5788 5788 5788
5753 5756 5757 5757 5758 5759 5760 5761 5761 5762 5763 5764 5765 5766 5767 5768 5769 5770 5772 5773 5774 5775 5776 5777 5778 5778 5779 5780 5781 5781 5782 5782 5782 5783 5783 5784 5784 5784 5784 5784 5784 5784 5784 5783
5745 5747 5749 5750 5751 5752 5753 5754 5755 5756 5757 5758 5759 5760 5761 5762 5764 5765 5766 5767 5769 5770 5771 5772 5773 5774 5775 5775 5776 5777 5777 5778 5778 5778 5779 5779 5779 5779 5779 5779 5779 5779 5779 5779
5737 5740 5741 5743 5744 5745 5746 5747 5748 5750 5751 5752 5753 5754 5756 5757 5758 5759 5761 5762 5763 5764 5766 5767 5768 5769 5770 5771 5771 5772 5772 5773 5773 5774 5774 5774 5774 5775 5775 5775 5774 5774 5774 5774
5730 5732 5733 5735 5737 5738 5739 5740 5742 5743 5744 5745 5747 5748 5749 5751 5752 5753 5755 5756 5757 5759 5760 5762 5763 5764 5765 5766 5766 5767 5767 5768 5768 5769 5769 5769 5769 5769 5769 5769 5769 5769 5769 5768
5722 5723 5725 5727 5729 5730 5731 5733 5734 5736 5737 5738 5740 5741 5743 5744 5746 5747 5748 5750 5751 5753 5754 5756 5757 5758 5759 5760 5761 5761 5762 5762 5763 5763 5763 5763 5763 5764 5764 5764 5763 5763 5763 5763
5713 5715 5717 5719 5720 5722 5723 5725 5726 5728 5729 5731 5732 5734 5736 5737 5739 5741 5742 5744 5745 5747 5748 5750 5751 5752 5753 5754 5755 5756 5756 5757 5757 5757 5757 5757 5757 5757 5758 5758 5758 5757 5757 5757
5705 5706 5708 5710 5712 5714 5715 5717 5719 5720 5722 5723 5725 5727 5729 5730 5732 5734 5735 5737 5739 5740 5742 5743 5745 5746 5747 5748 5749 5749 5750 5751 5751 5751 5751 5751 5751 5751 5751 5751 5752 5752 5751 5751
5696 5697 5699 5701 5703 5705 5707 5709 5711 5713 5714 5716 5718 5720 5721 5723 5725 5727 5728 5730 5732 5733 5735 5737 5738 5739 5740 5741 5742 5743 5744 5744 5744 5744 5744 5744 5744 5744 5744 5744 5744 5745 5745 5745
5686 5688 5690 5693 5695 5697 5699 5701 5703 5705 5706 5708 5710 5712 5714 5716 5717 5719 5721 5722 5724 5726 5728 5729 5731 5732 5733 5734 5735 5736 5737 5737 5738 5738 5738 5738 5737 5737 5737 5737 5737 5738 5738 5737
5677 5680 5682 5684 5686 5689 5691 5693 5695 5697 5698 5700 5702 5704 5706 5708 5709 5711 5712 5714 5716 5718 5719 5721 5723 5724 5725 5727 5728 5728 5729 5729 5730 5730 5730 5730 5730 5730 5730 5730 5730 5730 5730 5729
5669 5671 5674 5676 5678 5680 5682 5684 5686 5688 5690 5691 5693 5695 5697 5699 5700 5702 5703 5705 5707 5709 5711 5713 5714 5716 5717 5718 5719 5720 5721 5721 5722 5722 5722 5722 5722 5722 5722 5722 5722 5722 5721 5721
5661 5663 5666 5668 5669 5671 5673 5675 5677 5679 5681 5682 5684 5685 5687 5690 5691 5692 5694 5696 5698 5700 5702 5704 5706 5707 5708 5709 5710 5711 5712 5712 5713 5713 5713 5713 5714 5714 5714 5714 5714 5714 5713 5713
5653 5655 5657 5659 5661 5663 5664 5665 5667 5670 5671 5673 5674 5676 5678 5680 5682 5683 5685 5687 5690 5691 5693 5695 5696 5698 5699 5701 5701 5702 5703 5703 5704 5704 5704 5705 5705 5705 5705 5705 5705 5705 5705 5705
5645 5646 5648 5650 5652 5653 5655 5656 5658 5660 5661 5663 5665 5666 5668 5670 5672 5674 5676 5678 5680 5681 5683 5685 5687 5688 5690 5691 5692 5693 5694 5694 5695 5695 5695 5695 5696 5696 5696 5697 5697 5697 5697 5696
5636 5638 5639 5641 5643 5644 5646 5647 5648 5650 5652 5653 5655 5657 5659 5660 5662 5664 5666 5668 5669 5671 5673 5676 5677 5679 5680 5681 5682 5683 5684 5685 5685 5686 5686 5686 5686 5687 5687 5688 5688 5688 5688 5688
5628 5629 5631 5632 5633 5635 5637 5638 5639 5640 5642 5644 5646 5647 5649 5650 5652 5654 5655 5657 5659 5661 5663 5665 5667 5669 5670 5671 5673 5674 5674 5675 5676 5676 5677 5677 5677 5677 5678 5678 5678 5678 5678 5678
5619 5620 5622 5623 5624 5625 5627 5628 5630 5631 5633 5635 5636 5638 5639 5640 5642 5644 5645 5647 5648 5650 5652 5654 5656 5658 5660 5661 5662 5663 5664 5665 5666 5666 5667 5667 5667 5668 5668 5668 5669 5669 5669 5669
5611 5611 5613 5614 5615 5616 5617 5619 5620 5622 5624 5625 5627 5628 5629 5631 5632 5634 5635 5636 5638 5639 5641 5643 5645 5647 5649 5650 5652 5653 5654 5655 5655 5656 5657 5658 5658 5658 5658 5659 5659 5659 5659 5659
5602 5603 5604 5605 5606 5607 5609 5610 5612 5613 5614 5616 5617 5618 5620 5621 5622 5623 5625 5626 5628 5629 5631 5632 5634 5636 5638 5640 5641 5643 5644 5645 5646 5647 5647 5648 5648 5648 5648 5649 5649 5649 5649 5649